Regional Weather Roundup
Issued by NWS

Home | Current Version | Previous Version | Text Only | Print | Product List | Glossary Off
Versions: 1 2 3 4 5 6 7 8 9 10 11 12 13 14 15 16 17 18 19 20 21 22 23 24 25 26 27 28 29 30 31 32 33 34 35 36 37 38 39 40 41 42 43 44 45 46 47 48 49 50

000
ASUS43 KOAX 010310
RWRNE

WEATHER ROUNDUP FOR NEBRASKA
NATIONAL WEATHER SERVICE OMAHA NE
1000 PM CDT TUE MAY 31 2016

NOTES: SATELLITE DATA IS BEING USED TO AUGMENT CLOUD COVER ABOVE
       12000 FEET.
       "FAIR" INDICATES FEW OR NO CLOUDS BELOW 12,000 FEET WITH NO
       SIGNIFICANT WEATHER AND/OR OBSTRUCTIONS TO VISIBILITY.

  * THESE STATIONS DO NOT REPORT WEATHER SUCH AS RAIN...SNOW OR FOG.

NEZ001>004-019>022-054>056-010400-
NEBRASKA PANHANDLE

CITY           SKY/WX    TMP DP  RH WIND       PRES   REMARKS
SCOTTSBLUFF    CLEAR     55  37  50 NE6       30.11R
ALLIANCE       CLEAR     53  40  61 N9        30.09R
CHADRON        CLEAR     55  39  54 NW9       30.09R
KIMBALL        CLEAR     51  40  65 NE9       30.15R
SIDNEY         MOCLDY    57  41  55 NE7       30.13R
$$

NEZ057>060-069>072-079>082-010400-
SOUTHWEST NEBRASKA

CITY           SKY/WX    TMP DP  RH WIND       PRES   REMARKS
NORTH PLATTE   MOCLDY    60  49  66 W6        30.04R
IMPERIAL       PTCLDY    63  52  67 CALM      30.07R
LEXINGTON      CLEAR     62  52  70 SW3       30.04R
MCCOOK         CLEAR     64  48  56 S5        30.05R
OGALLALA       CLOUDY    61  45  55 NW9       30.07R
$$

NEZ005>010-023>029-035>040-094-010400-
NORTH CENTRAL NEBRASKA

CITY           SKY/WX    TMP DP  RH WIND       PRES   REMARKS
VALENTINE      CLEAR     56  43  61 NW8       30.03R
AINSWORTH      CLEAR     58  45  61 NW10G16   30.04R
BROKEN BOW     CLOUDY    61  51  70 CALM      30.01R
O`NEILL        CLEAR     61  45  55 NW14      30.01R
THEDFORD       CLEAR     60  46  59 N5        30.05R
$$

NEZ041-046>049-061>064-073>077-083>087-010400-
SOUTH CENTRAL NEBRASKA

CITY           SKY/WX    TMP DP  RH WIND       PRES   REMARKS
GRAND ISLAND   PTCLDY    65  53  65 SW3       30.01R
AURORA         CLEAR     64  51  63 SW5       30.01R
HASTINGS       CLEAR     66  48  52 S3        30.02R
HEBRON         PTCLDY    63  58  84 CALM      30.00R
HOLDREGE       CLEAR     64  50  61 CALM      30.04R
KEARNEY *      CLEAR     66  48  52 SW6       30.03R
YORK           PTCLDY    66  48  52 CALM      29.99R
$$

NEZ011>018-030>034-042>045-010400-
NORTHEAST NEBRASKA

CITY           SKY/WX    TMP DP  RH WIND       PRES   REMARKS
NORFOLK        CLEAR     63  46  54 SW9       29.95R
ALBION         CLEAR     63  44  49 SW6       29.98R
BLAIR          PTCLDY    68  47  46 CALM      29.96R
FREMONT        PTCLDY    66  55  67 CALM      29.96R
TEKAMAH        CLEAR     63  46  54 S5        29.94R
WAYNE          CLEAR     61  50  66 SW3       29.94R
$$

NEZ050>053-065>068-078-088>093-010400-
SOUTHEAST NEBRASKA

CITY           SKY/WX    TMP DP  RH WIND       PRES   REMARKS
LINCOLN        CLEAR     67  50  54 CALM      29.98R
OMAHA EPPLEY   PTCLDY    65  55  70 CALM      29.95R
BEATRICE       CLEAR     64  56  76 N3        29.99R HAZE
FALLS CITY     CLEAR     69  60  73 CALM      29.96R
NEBRASKA CITY  CLEAR     68  57  68 CALM      29.98R
PLATTSMOUTH    CLEAR     70  55  59 CALM      29.97R
$$

NEZ044-045-051>053-067-010400-
OMAHA AREA

CITY           SKY/WX    TMP DP  RH WIND       PRES   REMARKS
OMAHA EPPLEY   PTCLDY    65  55  70 CALM      29.95R
BLAIR          PTCLDY    68  47  46 CALM      29.96R
FREMONT        PTCLDY    66  55  67 CALM      29.96R
MILLARD        PTCLDY    65  55  69 CALM      29.96R
OFFUTT AFB     PTCLDY    61  57  88 CALM      29.95R
PLATTSMOUTH    CLEAR     70  55  59 CALM      29.97R
WAHOO          MOCLDY    69  50  51 W3        29.97R
$$




USA.gov is the U.S. government's official web portal to all federal, state and local government web resources and services.